Tracking 18840 objects as of 19-November-2017
HD Live streaming from Space Station
objects crossing your sky now

SATCOM 3R

Track SATCOM 3R now!
SATCOM 3R is classified as:


NORAD ID: 12967
Int'l Code: 1981-114A
Perigee: 35,792.8 km
Apogee: 35,872.6 km
Inclination: 15.1 °
Period: 1,438.1 minutes
Semi major axis: 42203 km
RCS: 2.5119 m2 (large)
Launch date: November 20, 1981
Source: United States (US)
Launch site: AIR FORCE EASTERN TEST RANGE (AFETR)
aabbcc
Your satellite tracking list
Your tracking list is empty




NASA's NSSDC Master Catalog

Two Line Element Set (TLE):
1 12967U 81114A   17322.44469450 +.00000020 +00000-0 +00000-0 0  9993
2 12967 015.0663 358.7729 0009453 258.1974 144.3254 01.00132897096702
Source of the keplerian elements: AFSPC